Location: Bermeries
(50.2863°N, 3.7551°E)
Time: 02:28:57
(UTC+00:00)

Cosmos 2228 Rocket - Pass Details

Date: 23 May 2024
Orbit: 616 x 648 km, 82.5° (Epoch: 21 June)

Event Time Altitude Azimuth Distance (km) Brightness Sun altitude
Exits shadow 00:05:24 37° 152° (SSE) 989 3.7 -18.9°
Maximum altitude 00:06:53 56° 95° (E) 760 3.4 -18.9°
Drops below altitude 10° 00:11:18 10° 18° (NNE) 2,036 6.9 -18.8°
Sets 00:13:36 0° 14° (NNE) 2,955 8.2 -18.7°
